Weather History for St. Joseph, MO

Change the Weather History Date:

Saturday, September 8, 2012

  Actual Average Record
Temperature  
Mean Temperature 63 °F 70 °F  
Max Temperature 79 °F 82 °F 100 °F (1947)
Min Temperature 46 °F 57 °F 44 °F (1956)
Degree Days  
Heating Degree Days 2 1  
Month to date heating degree days 2 6  
Since 1 July heating degree days 6 11  
Cooling Degree Days 0 5  
Month to date cooling degree days 72 50  
Year to date cooling degree days 1504 1127  
Growing Degree Days 12 (Base 50)    
Moisture  
Dew Point 49 °F    
Average Humidity 61    
Maximum Humidity 93    
Minimum Humidity 28    
Precipitation  
Precipitation 0.00 in 0.13 in 1.09 in (1920)
Month to date precipitation 1.44 1.16  
Year to date precipitation 18.63 27.46  
Sea Level Pressure  
Sea Level Pressure 30.08 in    
Wind  
Wind Speed 6 mph (NW)    
Max Wind Speed 18 mph    
Max Gust Speed 24 mph    
Visibility 10 miles    
Events      
T = Trace of Precipitation, MM = Missing Value Source: NWS Daily Summary

Daily Weather History Graph

Daily Weather History Graph

Search for Another Location

Airport:

Trip Planner

Search our weather history database for the weather conditions in past years. The results will help you decide how hot, cold, wet, or windy it might be!

Date:

Astronomy

Sep. 08, 2012 Rise Set
Actual Time 6:54 AM CDT 7:38 PM CDT
Civil Twilight 6:27 AM CDT 8:06 PM CDT
Nautical Twilight 5:54 AM CDT 8:38 PM CDT
Astronomical Twilight 5:21 AM CDT 9:11 PM CDT
Moon No Moon Rise 2:36 PM CDT (9/8)
Length of Visible Light 13h 38m
Length of Day
12h 44m
Waning Gibbous, 48% of the Moon is Illuminated
Sep 8
Waning Gibbous
Sep 15
New
Sep 22
First Quarter
Sep 29
Full
Oct 8
Last Quarter

Hourly Weather History & Observations

Time (CDT) Temp. Dew Point Humidity Pressure Visibility Wind Dir Wind Speed Gust Speed Precip Events Conditions
12:53 AM 53.1 °F 50.0 °F 89% 30.09 in 10.0 mi North 4.6 mph - N/A   Clear
1:53 AM 53.1 °F 48.9 °F 86% 30.11 in 10.0 mi NNE 5.8 mph - N/A   Clear
2:53 AM 52.0 °F 48.9 °F 89% 30.12 in 10.0 mi North 5.8 mph - N/A   Clear
3:53 AM 48.9 °F 46.9 °F 93% 30.13 in 10.0 mi Calm Calm - N/A   Clear
4:53 AM 48.0 °F 46.0 °F 93% 30.13 in 10.0 mi Calm Calm - N/A   Clear
5:53 AM 46.9 °F 45.0 °F 93% 30.13 in 10.0 mi Calm Calm - N/A   Clear
6:53 AM 48.0 °F 45.0 °F 89% 30.15 in 10.0 mi Calm Calm - N/A   Clear
7:53 AM 52.0 °F 48.9 °F 89% 30.16 in 10.0 mi NNE 3.5 mph - N/A   Clear
8:53 AM 59.0 °F 52.0 °F 78% 30.17 in 10.0 mi NNW 3.5 mph - N/A   Clear
9:53 AM 63.0 °F 48.9 °F 60% 30.16 in 10.0 mi NNW 8.1 mph - N/A   Clear
10:53 AM 66.9 °F 48.0 °F 51% 30.16 in 10.0 mi NW 11.5 mph - N/A   Clear
11:53 AM 70.0 °F 46.9 °F 44% 30.14 in 10.0 mi NW 12.7 mph - N/A   Clear
12:53 PM 72.0 °F 48.0 °F 43% 30.12 in 10.0 mi NW 11.5 mph - N/A   Clear
1:53 PM 73.9 °F 48.0 °F 40% 30.09 in 10.0 mi WNW 12.7 mph 23.0 mph N/A   Clear
2:53 PM 75.9 °F 46.9 °F 36% 30.06 in 10.0 mi NW 8.1 mph - N/A   Clear
3:53 PM 78.1 °F 46.0 °F 32% 30.03 in 10.0 mi NW 10.4 mph - N/A   Clear
4:53 PM 78.1 °F 43.0 °F 29% 30.01 in 10.0 mi WNW 11.5 mph - N/A   Clear
5:53 PM 78.1 °F 46.0 °F 32% 29.99 in 10.0 mi NW 6.9 mph - N/A   Clear
6:53 PM 75.0 °F 46.9 °F 37% 29.99 in 10.0 mi West 3.5 mph - N/A   Clear
7:53 PM 66.9 °F 54.0 °F 63% 29.99 in 10.0 mi SSW 3.5 mph - N/A   Clear
8:53 PM 59.0 °F 55.0 °F 87% 29.99 in 10.0 mi SSW 3.5 mph - N/A   Clear
9:53 PM 60.1 °F 55.0 °F 83% 29.99 in 10.0 mi SSW 4.6 mph - N/A   Clear
10:53 PM 59.0 °F 52.0 °F 78% 29.98 in 10.0 mi South 4.6 mph - N/A   Clear
11:53 PM 57.9 °F 51.1 °F 78% 29.98 in 10.0 mi South 5.8 mph - N/A   Clear